Погода в Варваровщине

Россия / Смоленская область     54°56′10″N   32°23′06″E
темп.,
°C
ветер,
м/с
пор.,
м/с
влажн.,
%
обл.,
%
осадки,
мм/ч
давл.,
гПа
погр.,
м
28 сентября, вт
вт2800:00+8с2791100 0.1 1027302
03:00+7ссв3794100 0.1 1027295
06:00+7ссв379499 0.0 1028426
09:00+8св3787100 0.1 1028588
12:00+8всв3684100 0.1 1030624
15:00+8всв368495 0.3 1031601
18:00+8св2681100 0.0 1032334
21:00+7в3882100 0.0 1033373
29 сентября, ср
ср2900:00+4всв23965 0.0 103552
03:00+3всв23945 0.0 103648
06:00+2в23945 0.0 103757
09:00+5в247942 0.0 1037228
12:00+9вюв235722 0.0 1036848
15:00+11вюв225060 0.0 10351010
18:00+7всв117192 0.0 103510
21:00+5в1280100 0.0 103510
30 сентября, чт
чт3000:00+4в118574 0.0 103610
03:00+3юв1188100 0.0 103610
06:00+2в1190100 0.0 103610
09:00+6вюв1276100 0.0 1036130
12:00+11юв225857 0.0 1036627
15:00+12ююв125244 0.0 1035962
18:00+9ююв117221 0.0 103410
21:00+6ююв118278 0.0 103510
1 октября, пт
пт100:00+5ю128670 0.0 103610
03:00+4ю229164 0.0 103613
06:00+3ю229366 0.0 103613
09:00+7ю238085 0.0 1036162
12:00+11ю236352 0.0 1035667
15:00+13ююз23588 0.0 1034990
18:00+9ю227860 0.0 103416
21:00+7ю228965 0.0 103416
2 октября, сб
сб200:00+6ю229499 0.0 103427
03:00+5ю229523 0.0 103436
06:00+4ю23965 0.0 103346
09:00+7ю25855 0.0 1033187
12:00+12ю35635 0.0 1033742
15:00+13ю45565 0.0 10311105
18:00+10ююв23766 0.0 103148
21:00+7ююв278722 0.0 1031121